Regional Weather Roundup
Issued by NWS Grand Forks, ND

Home | Current Version | Previous Version | Graphics & Text | Print | Product List | Glossary On
Versions: 1 2 3 4 5 6 7 8 9 10 11 12 13 14 15 16 17 18 19 20 21 22 23 24 25 26 27 28 29 30 31 32 33 34 35 36 37 38 39 40 41 42 43 44 45 46 47 48 49 50
000
ASUS43 KFGF 261031
RWRFGF
PRAIRIE TO PINES  WEATHER ROUNDUP
NATIONAL WEATHER SERVICE EASTERN NORTH DAKOTA/GRAND FORKS ND
500 AM CDT MON SEP 26 2016

 **SATELLITE DATA USED TO AUGMENT SKY COVER AT AUTOMATED STATIONS**
 *****  WEATHER ACROSS EASTERN NORTH DAKOTA  *****

CITY           SKY/WX    TMP DP  RH WIND       PRES   REMARKS
GRAND FORKS    CLEAR     50  37  61 NW15      29.92S
GRAND FRKS AFB CLEAR     50  36  59 NW16G23   29.94R
DEVILS LAKE    CLEAR     47  37  68 W16       30.02S
FARGO          CLEAR     49  36  61 W15       29.96S
WAHPETON ARPT  SUNNY     46  36  66 W17       30.00S
$$

 ***** WEATHER ACROSS CENTRAL AND WESTERN NORTH DAKOTA  *****

CITY           SKY/WX    TMP DP  RH WIND       PRES   REMARKS
BISMARCK       CLEAR     40  34  79 W7        30.16S
MINOT          CLEAR     47  34  60 W14       30.10F
JAMESTOWN      CLEAR     45  37  73 W14       30.06R
MINOT AFB      CLEAR     44  35  69 W13       30.09S
GARRISON         N/A     43  37  79 W12       30.14S
WILLISTON      CLEAR     39  34  82 E5        30.19F
DICKINSON      CLEAR     40  34  79 NW5       30.19S
HETTINGER      CLEAR     37  35  92 NW3       30.23S
$$

 *****  OTHER AIRPORT OBSERVATIONS IN OUR AREA  *****

CITY           SKY/WX    TMP DP  RH WIND       PRES   REMARKS
WALHALLA       FAIR      48  45  87 NW13G22   29.93S
GRAFTON AIRPOR FAIR      50  39  66 NW16G24   29.94S
VALLEY CITY AR FAIR      46  37  71 W15       30.04F
CANDO          FAIR      41  37  87 W12       30.05R
CAVALIER APRT  FAIR      48  37  66 W13       29.92S
GWINNER        FAIR      46  37  71 W14       30.06R
ROLLA          FAIR      46  32  57 NW15      30.04R
 ***** THE ABOVE OBSERVATIONS ARE NON NWS ARE NOT QUALITY
       CONTROLLED AND MAY MIS-REPORT RAIN FOR SNOW...
$$

  *****  WEATHER ACROSS NORTHERN MINNESOTA  *****

CITY           SKY/WX    TMP DP  RH WIND       PRES   REMARKS
FLAG ISLAND    CLOUDY    50  46  87 W22G35    29.70S
WARROAD        CLOUDY    48  45  87 W15G22    29.77S
ROSEAU         CLOUDY    50  43  76 NW14G22   29.79S
HALLOCK        CLEAR     48  39  71 NW14G22   29.88R
THF RVR FALLS  MOCLDY    47  39  74 W15       29.88S
BAUDETTE       LGT RAIN  49  46  90 W16G25    29.72S
WASKISH        CLOUDY    50  45  81 W17G28    29.77R
CROOKSTON      PTCLDY    46  39  76 NW14      29.91S
STEPHEN NDAWN    N/A     48  39  71 W14         N/A
GREENBUSH NDAW   N/A     46  41  81 W14         N/A
$$
  *****  WEATHER ACROSS CENTRAL AND WEST MINNESOTA  *****

CITY           SKY/WX    TMP DP  RH WIND       PRES   REMARKS
FOSSTON        MOCLDY    45  39  81 W15G21    29.89S
BEMIDJI        PTCLDY    47  39  75 W15G22    29.83S
PARK RAPIDS    PTCLDY    47  38  71 W15       29.88R
ELBOW LAKE     FAIR      46  38  72 NW10G17   29.99S
WADENA         PTCLDY    46  37  71 W8        29.91S
DETROIT LAKES  PTCLDY    46  37  71 NW16      29.94S
MOORHEAD       CLEAR     48  36  61 W15       29.97S
FERGUS FALLS   CLEAR     45  37  76 W10       30.00S
MORRIS MN      CLEAR     48  37  66 W13G22    30.00S
STAPLES        MOCLDY    46  39  76 W9        29.90S
$$
  *****  WEATHER ELSEWHERE ACROSS MINNESOTA  *****

CITY           SKY/WX    TMP DP  RH WIND       PRES   REMARKS
DULUTH         LGT RAIN  49  48  97 W21G31    29.70S
INTRNTL FALLS  LGT RAIN  50  47  89 W16G28    29.65S
ELY            RAIN      48  48 100 W12G23    29.60S
CLOQUET        RAIN      48  45  87 W16G28    29.73F
WHEATON        NOT AVBL
BRAINERD       PTCLDY    50  41  71 W15G25    29.87S
HIBBING        LGT RAIN  48  46  93 W16G22    29.70S
ALEXANDRIA     CLEAR     48  39  71 W16G24    29.97S
SAINT CLOUD    CLEAR     50  41  71 W16       29.92R
MINNEAPOLIS    CLEAR     52  41  66 W14       29.93S
$$

  *****  WEATHER ACROSS SOUTH DAKOTA  *****

CITY           SKY/WX    TMP DP  RH WIND       PRES   REMARKS
SIOUX FALLS    PTCLDY    45  36  70 W8        30.15S
BROOKINGS      CLEAR     45  36  70 W9        30.12R
WATERTOWN      CLEAR     48  35  60 W15       30.10R
HURON          PTCLDY    42  35  76 W9        30.16S
SISSETON         N/A     50  35  56 NW16G22   30.04R
ABERDEEN       PTCLDY    41  34  76 W9        30.14R
MITCHELL       CLEAR     46  36  68 W10       30.19R
PIERRE         CLEAR     44  35  70 W12       30.20S
MOBRIDGE       CLEAR     43  36  76 N6        30.17S
RAPID CITY     CLEAR     45  34  65 W5        30.28S
$$

  *****  SOME WEATHER IN NEARBY STATES *****

CITY           SKY/WX    TMP DP  RH WIND       PRES   REMARKS
GLASGOW MT     CLEAR     40  37  89 MISG      30.22R
GREAT FALLS MT CLOUDY    48  41  76 SW12      30.33S
CHEYENNE WY    CLEAR     41  33  73 W8        30.42F
SCOTTSBLUFF NE CLEAR     38  35  89 NW3       30.36F
OMAHA NE       CLEAR     49  39  68 NW3       30.22R
DES MOINES IA  CLEAR     52  42  69 W7        30.14S
DAVENPORT IA   MOCLDY    53  48  83 W7        30.06R
CHICAGO IL     CLOUDY    60  49  66 W9        29.97R
EAU CLAIRE WI  CLEAR     52  44  74 W15G22    29.87S
LA CROSSE WI   CLEAR     55  45  68 W12       29.94S
$$

  *****  SOME NATIONAL WEATHER *****

CITY           SKY/WX    TMP DP  RH WIND       PRES   REMARKS
LA GUARDIA NY  CLEAR     59  46  62 E6        30.18R
RALEIGH NC     CLOUDY    67  59  75 E6        30.12F
ATLANTA GA     PTCLDY    72  67  84 SE7       30.07R
NEW ORLEANS LA PTCLDY    78  73  84 W5        29.99S
OKLAHOMA CITY  PTCLDY    61  54  77 N12       30.22S
ALBUQUERQUE NM CLEAR     55  33  43 E12       30.45R
SALT LAKE CITY CLEAR     51  42  71 SE7       30.40F
LOS ANGELES CA CLEAR     72  45  37 CALM      29.92F
BOISE ID       CLEAR     56  40  55 SE10      30.33F
SEATTLE WA     CLEAR     57  51  80 N9        30.19F
$$

*** WEATHER ACROSS MANITOBA...SASKATCHEWAN AND ONTARIO ***
                ***ONTARIO***

CITY           SKY/WX    TMP DP  RH WIND       PRES   REMARKS
GERALDTON      MOCLDY    55  54  94 S6        29.54F
THUNDER BAY    CLOUDY    54  52  94 S5        29.53F
SIOUX LOOKOUT  DRIZZLE   50  48  93 NW15G26   29.48F
TORONTO        PTCLDY    57  46  67 SE6       29.98S
BIG TROUT LK   CLOUDY    54  54 100 SE8       29.45S FOG
PICKLE LAKE    NOT AVBL
DRYDEN         LGT RAIN  48  48 100 W14G24    29.54S FOG
KENORA         CLOUDY    50  46  87 NW13G28   29.65R
$$
                *** MANITOBA***

CITY           SKY/WX    TMP DP  RH WIND       PRES   REMARKS
BRANDON        CLEAR     41  36  81 W10       30.01S
DAUPHIN        CLEAR     43  36  75 W14       29.96S
ISLAND LAKE    LGT RAIN  50  48  93 NW20G31   29.58S
PILOT MOUND      N/A     45  36  70 NW10        N/A
THE PAS        NOT AVBL
THOMPSON       LGT RAIN  50  48  93 NW10G17   29.75R
WINNIPEG       PTCLDY    48  41  76 NW17      29.84S
LYNN LAKE      CLOUDY    48  43  81 NW18G28   29.89R
CHURCHILL      LGT RAIN  45  43  93 NW15      29.61S
GILLAM         LGT RAIN  48  46  93 N17G26    29.62S
$$
                ***SASKATCHEWAN***

CITY           SKY/WX    TMP DP  RH WIND       PRES   REMARKS
ESTEVAN        NOT AVBL
KINDERSLEY     PTCLDY    39  34  81 S3        30.19F
LLOYDMINSTER   CLEAR     39  32  75 VRB2      30.16F
PRINCE ALBERT  CLEAR     36  30  80 W6        30.11R
REGINA         CLEAR     34  30  86 W7        30.15S
YORKTON        CLEAR     39  36  87 NW9       30.06S
N. BATTLEFORD  CLEAR     36  30  80 W3        30.20R
LA RONGE       CLEAR     37  34  87 W6        30.08S
SASKATOON      CLEAR     34  32  93 SW8       30.17S
SWIFT CURRENT  CLEAR     41  34  75 SW12      30.19F
$$
NOTE: THESE ARE AUTOMATED STATIONS WITH LIMITED QUALITY CONTROL
      "FAIR" INDICATES FEW OR NO CLOUDS BELOW 12,000 FEET WITH NO
      SIGNIFICANT WEATHER AND/OR OBSTRUCTIONS TO VISIBILITY.
      SKY/WX - SKY CONDITION AND SIGNIFICANT WEATHER.
      TMP - AIR TEMPERATURE.    DP   - DEWPOINT TEMPERATURE.
      RH  - RELATIVE HUMIDITY.  PRES - PRESSURE.
      HX  - HEAT INDEX.         WCI  - WIND CHILL INDEX.
$




USA.gov is the U.S. government's official web portal to all federal, state and local government web resources and services.